Regional Weather Roundup
Issued by NWS

Home | Current Version | Previous Version | Graphics & Text | Print | Product List | Glossary On
Versions: 1 2 3 4 5 6 7 8 9 10 11 12 13 14 15 16 17 18 19 20 21 22 23 24 25 26 27 28 29 30 31 32 33 34 35 36 37 38 39 40 41 42 43 44 45 46 47 48 49 50
000
ASUS45 KBOU 212007
RWRCO

WEATHER ROUNDUP FOR COLORADO
NATIONAL WEATHER SERVICE DENVER/BOULDER CO
200 PM MDT THU SEP 21 2017

NOTE: "FAIR" INDICATES FEW OR NO CLOUDS BELOW 12000 FEET WITH NO
SIGNIFICANT WEATHER AND/OR OBSTRUCTIONS TO VISIBILITY.

COZ001>005-013-030-031-212100-
...NORTHWEST COLORADO...

CITY           SKY/WX    TMP DP  RH WIND       PRES   REMARKS
CRAIG          FAIR      78  18  10 S31G48    29.77F
HAYDEN         FAIR      77  21  12 S21G35    29.81
MEEKER         FAIR      76  21  12 S23G35    29.81F
RABBIT EARS PA FAIR      59  27  29 S9G25     30.08F
STEAMBOAT SPGS FAIR      76  21  12 S17G24    29.82F
WALDEN         FAIR      70  18  13 S23G31    29.93S
$$

COZ006>008-011-212100-
...WEST CENTRAL VALLEYS...

CITY           SKY/WX    TMP DP  RH WIND       PRES   REMARKS
GRAND JUNCTION FAIR      83  24  11 S22G30    29.74F
MONTROSE       FAIR      80  24  12 SW23G33   29.84F
EAGLE          FAIR      77  23  13 SW29G38   29.86F
RIFLE          FAIR      82  13   7 S24G33    29.77F
DELTA          FAIR      85  22   9 S21G26    29.81F
NUCLA          FAIR      79  21  11 SW25G33   29.92F
$$

COZ017>023-064>068-212100-
...SOUTHWEST COLORADO...

CITY           SKY/WX    TMP DP  RH WIND       PRES   REMARKS
DURANGO        FAIR      73  30  20 W10G24    30.02F
CORTEZ         FAIR      79  21  11 S17G30    29.94F
PAGOSA SPRINGS FAIR      69  25  19 W12       30.09F
TELLURIDE      FAIR      64  25  22 S16G24    30.10F
WOLF CREEK PAS FAIR      46  27  46 S29G41    30.32F
$$

COZ009-010-012-014-032>034-037-058>063-212100-
...CENTRAL COLORADO...

CITY           SKY/WX    TMP DP  RH WIND       PRES   REMARKS
ASPEN          FAIR      74  20  13 S14G26    29.92F
BUENA VISTA    FAIR      75  15  10 S15G25    29.96F
COPPER MTN     FAIR      59   9  13 S9G28     30.24F
BERTHOUD PASS  FAIR      50  41  71 SW12G22   30.27S
COTTONWOOD PAS FAIR      72   5   7 W13G26    30.10F
GUNNISON       FAIR      72  25  17 VRB3      29.97F
KREMMLING      FAIR      81   9   6 SW20G40   29.90F
LEADVILLE      FAIR      64  11  12 SW23G29   30.08F
MONARCH PASS   FAIR      55  18  22 SW40G51   30.34F
SALIDA         FAIR      75  19  12 S21G33    30.02F
SUNLIGHT       FAIR      59  21  23 S15G35    30.13F
WILKERSON PASS FAIR      59  19  21 SW12G24   30.21F
$$

COZ069>075-212100-
...SAN LUIS VALLEY/SANGRE DE CRISTO MOUNTAINS...

CITY           SKY/WX    TMP DP  RH WIND       PRES   REMARKS
ALAMOSA        FAIR      74  25  16 SW14G29   30.03F
DEL NORTE      FAIR      70  25  18 W23G36    30.06F
LA VETA PASS   FAIR      64  25  22 MISG      30.27F
SAGUACHE       FAIR      72  27  18 SW21G28   30.02F
$$

COZ035-036-038>040-212100-
...NORTHERN COLORADO FRONT RANGE...

CITY           SKY/WX    TMP DP  RH WIND       PRES   REMARKS
DENVER INTL AP FAIR      87  20   8 VRB6      29.72F
DMNS CITY PARK   N/A     88  25  10 SW5G15    29.69F
AURORA         MOSUNNY   88  20   8 S15G22    29.73F
FRONT RANGE AP MOSUNNY   90  21   8 S7G23     29.75F
ERIE MUNI ARPT FAIR      87  17   7 E9        29.76F
BOULDER MUN AP FAIR      86  27  11 NE7       29.72F
CENTENNIAL     FAIR      86  18   8 SW21G31   29.74F
BROOMFIELD     MOSUNNY   86  25  10 MISG      29.74F
FORT COLLINS   FAIR      87  31  13 SE14G20   29.72F HAZE
LONGMONT       FAIR      89  30  12 E7        29.72F
$$

COZ041-046-047-076>085-087-088-212100-
...PIKES PEAK/PALMER DIVIDE AND SOUTHERN FOOTHILLS...

CITY           SKY/WX    TMP DP  RH WIND       PRES   REMARKS
COLO. SPRINGS  FAIR      84  26  12 S24G32    29.85F
A. F. ACADEMY  FAIR      83  15   7 SW8G18    29.83F
SCHRIEVER AFB  FAIR      82  22  11 S21G26    29.86F
CHEYENNE MTN   FAIR      78  22  12 SE17G26   29.84F
ELLICOTT         N/A    N/A N/A N/A SW13G23   29.85F
FALCON         FAIR      80  20  11 S21G31    29.91F
FORT CARSON    FAIR      83  22  10 SE10G25   29.82F
LIMON          FAIR      86  23  10 S20G29    29.79F
MONUMENT HILL  FAIR      79  23  12 S16G28    29.90F
CANON CITY     SUNNY     88  28  11 CALM      29.79F
WALSENBURG     NOT AVBL
TRINIDAD       FAIR      87  26  11 W20G29    29.85F
$$

COZ042>045-048>051-090-091-212100-
...NORTHEAST COLORADO...

CITY           SKY/WX    TMP DP  RH WIND       PRES   REMARKS
GREELEY ARPT   FAIR      87  35  15 SE10      29.70F
AKRON          FAIR      92  18   6 SW18G25   29.71F
BURLINGTON     FAIR      92  30  11 S30G39    29.75F
WRAY           FAIR      97  23   7 S23G30    29.67F
YUMA           FAIR      91  28  10 S12G26    29.69F
STERLING       FAIR      90  34  13 SE3       29.66F
HOLYOKE        NOT AVBL
FORT MORGAN    FAIR      91  26   9 SW9       29.70F
$$

COZ086-089-092>099-212100-
...SOUTHEAST COLORADO...

CITY           SKY/WX    TMP DP  RH WIND       PRES   REMARKS
PUEBLO         FAIR      90  25   9 MISG      29.74F
LA JUNTA       FAIR      93  27   9 S12       29.74F
LAMAR          FAIR      96  29   9 SW21G29   29.69F
SPRINGFIELD      N/A     89  34  14 S30G39    29.80F
$$



USA.gov is the U.S. government's official web portal to all federal, state and local government web resources and services.